Date String (YYYY-MM-DD hh:mm:ss) UTC,Instrument flags,Ambient pressure (hPa),Sample flow (lpm),Bypass flow (lpm),Sample temperature (°C),Ambient temperature (°C),ASC tube jacket temperature (°C),LED temperature (°C),Box temperature (°C),Sample RH (%),Span deviation,Mass concentration (μg/m³),Mass concentration (μg/m³),Mass concentration (μg/m³)
DateTimeUTC,F1_M11,P_M11,Q1_M11,Q2_M11,T1_M11,T2_M11,T3_M11,T4_M11,T5_M11,U1_M11,ZSPAN_M11,X2_M11,X0_M11,X1_M11
2021-09-26 15:00:00,,0826.9,5.01,0.00,29.9,28.8,00.0,38.9,31.7,11.4,0002.4,0007.36,0014.33,0006.33
2021-09-26 15:01:00,,0826.9,5.01,0.00,29.9,28.9,00.0,38.9,31.7,11.6,0002.7,0007.29,0014.03,0006.32
2021-09-26 15:02:00,,0826.8,5.00,0.00,30.0,29.0,00.0,39.0,31.8,11.6,0002.1,0007.25,0015.25,0006.31
2021-09-26 15:03:00,,0826.9,4.99,0.00,30.0,29.1,00.0,39.0,31.8,11.6,0001.8,0007.25,0015.29,0006.31
2021-09-26 15:04:00,,0827.0,5.00,0.00,30.0,29.2,00.0,39.0,31.9,11.4,0001.6,0007.22,0014.90,0006.31
2021-09-26 15:05:00,,0827.1,5.00,0.00,30.1,29.2,00.0,39.0,31.9,11.4,0001.6,0007.26,0015.19,0006.30
2021-09-26 15:06:00,,0827.0,5.01,0.00,30.1,28.9,00.0,39.0,31.9,11.4,0001.5,0007.22,0015.57,0006.26
2021-09-26 15:07:00,,0826.8,4.99,0.00,30.0,27.1,00.0,39.0,31.4,11.5,0001.2,0007.17,0015.51,0006.23
2021-09-26 15:08:00,,0826.8,5.00,0.00,29.8,26.4,00.0,39.0,31.2,11.6,0001.5,0007.21,0015.75,0006.22
2021-09-26 15:09:00,,0826.8,4.99,0.00,29.8,26.7,00.0,39.0,31.2,11.7,0001.9,0007.21,0015.55,0006.21
2021-09-26 15:10:00,,0826.8,5.00,0.00,29.7,27.2,00.0,38.9,31.3,11.6,0002.4,0007.21,0015.55,0006.21
2021-09-26 15:11:00,,0827.1,5.00,0.00,29.7,27.5,00.0,38.9,31.3,11.5,0002.2,0007.25,0015.59,0006.24
2021-09-26 15:12:00,,0826.9,4.99,0.00,29.7,27.9,00.0,38.9,31.4,11.5,0002.2,0007.31,0015.74,0006.24
2021-09-26 15:13:00,,0826.9,5.02,0.00,29.8,28.2,00.0,38.9,31.5,11.3,0002.6,0007.33,0014.09,0006.25
2021-09-26 15:14:00,,0826.9,4.99,0.00,29.8,28.4,00.0,38.9,31.6,11.0,0002.7,0007.33,0014.00,0006.24
2021-09-26 15:15:00,,0827.2,5.00,0.00,29.8,28.6,00.0,38.9,31.6,11.3,0003.2,0007.38,0014.40,0006.23
2021-09-26 15:16:00,,0826.9,5.01,0.00,29.9,28.7,00.0,38.9,31.7,11.5,0003.4,0007.35,0014.30,0006.23
2021-09-26 15:17:00,,0826.9,5.00,0.00,29.9,28.9,00.0,38.9,31.7,13.3,0003.2,0007.36,0013.89,0006.25
2021-09-26 15:18:00,,0827.0,4.99,0.00,29.9,29.0,00.0,38.9,31.8,13.3,0003.3,0007.43,0013.56,0006.29
2021-09-26 15:19:00,,0826.8,5.01,0.00,30.0,29.1,00.0,38.9,31.9,12.9,0003.1,0007.38,0014.26,0006.30
2021-09-26 15:20:00,,0826.9,4.99,0.00,30.0,29.2,00.0,39.0,31.9,12.7,0002.6,0007.37,0015.39,0006.30
2021-09-26 15:21:00,,0827.0,5.00,0.00,30.1,28.7,00.0,39.0,31.8,12.8,0002.2,0007.39,0016.10,0006.30
2021-09-26 15:22:00,,0827.1,4.99,0.00,30.0,27.0,00.0,39.0,31.3,12.4,0002.1,0007.36,0016.16,0006.29
2021-09-26 15:23:00,,0827.0,5.00,0.00,29.8,26.4,00.0,39.0,31.1,12.7,0002.1,0007.28,0016.12,0006.27
2021-09-26 15:24:00,,0826.9,5.01,0.00,29.8,26.8,00.0,38.9,31.2,13.2,0002.1,0007.23,0016.24,0006.26
2021-09-26 15:25:00,,0826.9,5.00,0.00,29.7,27.3,00.0,38.9,31.3,13.2,0002.0,0007.18,0017.42,0006.25
2021-09-26 15:26:00,,0826.9,4.99,0.00,29.7,27.6,00.0,38.8,31.4,13.2,0001.1,0007.10,0018.59,0006.24
2021-09-26 15:27:00,,0826.9,5.01,0.00,29.7,28.0,00.0,38.8,31.4,13.0,0000.8,0007.04,0018.59,0006.23
2021-09-26 15:28:00,,0826.8,4.99,0.00,29.8,28.2,00.0,38.8,31.5,12.9,0000.8,0007.03,0018.96,0006.23
2021-09-26 15:29:00,,0827.0,4.99,0.00,29.8,28.5,00.0,38.8,31.6,12.5,0000.6,0006.98,0019.08,0006.21
2021-09-26 15:30:00,,0826.8,5.01,0.00,29.8,28.6,00.0,38.8,31.6,12.1,0000.2,0006.95,0019.66,0006.19
2021-09-26 15:31:00,,0826.8,4.98,0.00,29.9,28.8,00.0,38.9,31.7,12.1,0000.3,0006.95,0018.41,0006.19
2021-09-26 15:32:00,,0826.8,5.01,0.00,29.9,28.9,00.0,38.9,31.7,12.6,0000.1,0006.97,0017.70,0006.21
2021-09-26 15:33:00,,0826.9,5.00,0.00,30.0,29.0,00.0,38.9,31.8,12.1,0000.1,0006.97,0017.83,0006.21
2021-09-26 15:34:00,,0827.0,4.99,0.00,30.0,29.0,00.0,38.9,31.8,12.1,0000.4,0007.04,0017.98,0006.23
2021-09-26 15:35:00,,0826.9,5.02,0.00,29.9,27.5,00.0,38.9,31.4,11.7,0000.3,0007.10,0018.07,0006.23
2021-09-26 15:36:00,,0827.2,4.99,0.00,29.8,26.3,00.0,38.9,31.1,11.5,0000.6,0007.11,0016.69,0006.23
2021-09-26 15:37:00,,0827.1,5.00,0.00,29.7,26.6,00.0,38.9,31.2,12.0,0001.4,0007.15,0015.27,0006.24
2021-09-26 15:38:00,,0827.0,5.01,0.00,29.7,27.0,00.0,38.8,31.3,11.8,0001.8,0007.23,0015.23,0006.24
2021-09-26 15:39:00,,0826.9,4.99,0.00,29.7,27.4,00.0,38.8,31.3,11.9,0002.0,0007.28,0016.01,0006.23
2021-09-26 15:40:00,,0826.8,5.02,0.00,29.7,27.8,00.0,38.8,31.4,11.6,0001.9,0007.25,0015.90,0006.22
2021-09-26 15:41:00,,0827.4,5.00,0.00,29.7,28.1,00.0,38.8,31.5,11.6,0002.0,0007.24,0014.59,0006.21
2021-09-26 15:42:00,,0827.1,5.00,0.00,29.7,28.4,00.0,38.8,31.5,11.2,0002.3,0007.22,0014.01,0006.18
2021-09-26 15:43:00,,0826.9,4.99,0.00,29.8,28.6,00.0,38.8,31.6,11.0,0002.2,0007.15,0013.88,0006.15
2021-09-26 15:44:00,,0827.0,5.00,0.00,29.8,28.7,00.0,38.8,31.7,11.8,0002.1,0007.17,0014.14,0006.14
2021-09-26 15:45:00,,0826.9,4.99,0.00,29.9,28.9,00.0,38.8,31.7,12.0,0002.0,0007.16,0014.61,0006.13
2021-09-26 15:46:00,,0826.9,5.02,0.00,29.9,29.0,00.0,38.8,31.8,11.7,0002.1,0007.09,0014.34,0006.11
2021-09-26 15:47:00,,0827.0,4.99,0.00,30.0,28.8,00.0,38.9,31.7,11.7,0002.2,0007.13,0014.51,0006.12
2021-09-26 15:48:00,,0826.9,5.00,0.00,29.9,27.2,00.0,38.9,31.4,11.5,0002.3,0007.11,0015.00,0006.11
2021-09-26 15:49:00,,0826.9,5.00,0.00,29.7,26.4,00.0,38.8,31.1,11.2,0002.4,0007.05,0014.98,0006.11
2021-09-26 15:50:00,,0826.9,4.99,0.00,29.7,26.8,00.0,38.8,31.2,11.3,0002.2,0007.05,0013.98,0006.10
2021-09-26 15:51:00,,0826.9,5.00,0.00,29.7,27.2,00.0,38.8,31.3,12.1,0002.5,0007.09,0013.80,0006.11
2021-09-26 15:52:00,,0826.9,5.00,0.00,29.7,27.6,00.0,38.8,31.3,12.8,0002.2,0007.11,0014.09,0006.12
2021-09-26 15:53:00,,0826.9,5.01,0.00,29.7,28.0,00.0,38.8,31.4,12.4,0002.1,0007.16,0014.66,0006.16
2021-09-26 15:54:00,,0826.9,4.99,0.00,29.7,28.2,00.0,38.8,31.5,12.4,0002.5,0007.17,0015.13,0006.17
2021-09-26 15:55:00,,0826.9,5.00,0.00,29.8,28.5,00.0,38.8,31.6,12.9,0002.7,0007.14,0015.38,0006.18
2021-09-26 15:56:00,,0826.9,5.01,0.00,29.8,28.6,00.0,38.8,31.6,12.5,0002.6,0007.12,0015.88,0006.17
2021-09-26 15:57:00,,0826.9,4.99,0.00,29.8,28.8,00.0,38.8,31.7,12.5,0002.5,0007.18,0017.58,0006.17
2021-09-26 15:58:00,,0826.9,5.00,0.00,29.9,28.8,00.0,38.8,31.7,12.8,0001.8,0007.19,0018.43,0006.18
2021-09-26 15:59:00,,0826.9,5.01,0.00,29.8,27.4,00.0,38.8,31.3,13.4,0001.3,0007.23,0018.43,0006.19
